COSMOS 2251 DEB, 47073

Orbit data source: Space-Track

COSMOS 2251 DEB, 47073 is space debris in LEO originally from a launch on Wed, 16 Jun 1993 UTC launched from the Plesetsk Missile And Space Complex (PKMTR). The debris from Iridium 33, an American commercial communications satellite, has been tracked extensively since its accidental collision with the defunct Russian satellite Cosmos 2251 in 2009. This event, occurring at high speed in low Earth orbit (LEO), generated thousands of pieces of space debris, significantly increasing the risk of further collisions. The Iridium 33 debris cloud has impacted space traffic management and orbital debris mitigation strategies, making it a subject of ongoing study in space situational awareness.

Loading next visibility...
Identifier
47073, 1993-036BYD
Orbit
LEO
Country
Flag of CISCIS
Related business
Manufacturer
Unknown
Mission
Spacecraft
Bus & Motor
Unknown
Mass
Unknown
Launch date (UTC)
1993-06-16 (32 years ago)
Launch vehicle
Unknown
Launch site
Plesetsk Missile And Space Complex (PKMTR)
Object type
Payload
Rocket body
Debris
Shape & HBR
Unknown shape, 0.1 m
Radar Cross Section
Small (<0.1 m²)

Expand to show TLE details & history
Last TLE update: 2 days ago

TLE from 2 days ago
0 COSMOS 2251 DEB
1 47073U 93036BYD 25306.64084371  .00001125  00000-0  63862-3 0  9998
2 47073  74.0817 271.5991 0163158 318.9140  39.9799 14.04607567597988
Epoch: 2025-11-02T15:22Z
TLE epoch observation values (Epoch: 2025-11-02T15:22:48.896Z)
Latitude
-0.00008°
Longitude
-1.25832°
Altitude
790.542 km
Speed
7.505 km/s
True Right ascension
18h 06m 23s
True Declination
0° 00' 00"
Sunlit
Object was in daylight at epoch
Visualization orbit readout
Latitude
Unknown
Longitude
Unknown
Altitude
Unknown
Speed
Unknown
Apparent Right ascension
Unknown
Apparent Declination
Unknown
Sunlit
N/A
Visualization observer readout
Local Sidereal Time
23:05:01
Azimuth
Unknown
Elevation
Unknown
Doppler factor
Unknown
Orbital elements
Apogee altitude
993.887 km
Perigee altitude
757.188 km
Semi-major axis
7,253.675 km
Eccentricity
0.01632
Inclination
74.0817°
RAAN
271.5991°
Arg. of periapsis
318.914°
True anomaly
41.20015°
Mean anomaly
39.9799°
Eccentric anomaly
40.58811°
Mean motion
3.51323 °/min
Orbital period
102.47 mins
BSTAR
0.00063862
Loading maneuver chart data...
Computing Atmospheric mass density...

Documentation

Showing up to 5 results
|